period_start,C,m1,H,J0,J1,J2,J3,J4,J5,JA,JB,JC,JD,JJ,JK,JN,#
2018-01-31 00:01:03,0.16,8.21,0.00,17.59,20.69,24.11,14.37,50.59,1027.83,2047.84,1380.23,1662.27,1900.59,599.91,613.78,49.88,0000 0000 0000 0000 000000
2018-01-31 00:06:04,0.14,8.22,0.00,17.59,20.70,24.11,14.56,50.55,1027.84,2047.71,1379.17,1661.46,1899.64,600.41,614.20,49.93,0000 0000 0000 0000 000000
2018-01-31 00:11:06,0.14,8.22,0.00,17.59,20.72,24.14,14.49,50.60,1027.82,2047.56,1378.15,1660.59,1898.63,600.20,614.01,49.99,0000 0000 0000 0000 000000
2018-01-31 00:16:07,0.11,8.23,0.00,17.60,20.72,24.14,14.40,50.60,1027.85,2047.37,1377.16,1659.81,1897.64,600.07,613.83,50.04,0000 0000 0000 0000 000000
2018-01-31 00:21:09,0.14,8.24,0.00,17.62,20.72,24.15,14.40,50.58,1027.86,2047.24,1376.13,1658.96,1896.67,600.02,613.89,50.09,0000 0000 0000 0000 000000
2018-01-31 00:26:10,0.15,8.24,0.00,17.64,20.73,24.16,14.41,50.61,1027.88,2047.13,1375.05,1658.05,1895.69,599.78,613.58,50.14,0000 0000 0000 0000 000000
2018-01-31 00:31:12,0.17,8.25,0.00,17.64,20.74,24.16,14.49,50.57,1028.13,2047.11,1373.97,1657.14,1894.65,600.20,614.23,50.19,0000 0000 0000 0000 000000
2018-01-31 00:36:13,0.19,8.26,0.00,17.63,20.74,24.17,14.43,50.58,1028.29,2047.12,1372.85,1656.26,1893.61,599.75,613.82,50.24,0000 0000 0000 0000 000000
2018-01-31 00:41:14,0.17,8.27,0.00,17.64,20.75,24.17,14.37,50.56,1028.33,2047.11,1371.77,1655.39,1892.58,599.85,613.97,50.29,0000 0000 0000 0000 000000
2018-01-31 00:46:15,0.17,8.28,0.00,17.66,20.77,24.19,14.42,50.59,1028.28,2047.06,1370.72,1654.49,1891.59,600.02,614.06,50.34,0000 0000 0000 0000 000000
2018-01-31 00:51:17,0.17,8.29,0.00,17.66,20.77,24.19,14.43,50.63,1028.29,2047.04,1369.67,1653.58,1890.53,599.93,613.79,50.39,0000 0000 0000 0000 000000
2018-01-31 00:56:18,0.14,8.29,0.00,17.67,20.78,24.19,14.49,50.73,1028.30,2047.03,1368.68,1652.83,1889.54,600.23,614.15,50.44,0000 0000 0000 0000 000000
2018-01-31 01:01:19,0.15,8.30,0.00,17.68,20.79,24.21,14.46,50.73,1028.33,2047.04,1367.70,1651.99,1888.59,600.13,614.07,50.49,0000 0000 0000 0000 000000
2018-01-31 01:06:21,0.17,8.31,0.00,17.68,20.79,24.21,14.47,50.72,1028.33,2047.03,1366.65,1651.09,1887.66,600.06,614.00,50.54,0000 0000 0000 0000 000000
2018-01-31 01:11:22,0.17,8.32,0.00,17.69,20.81,24.23,14.29,50.55,1028.34,2047.01,1365.65,1650.22,1886.55,599.85,613.55,50.59,0000 0000 0000 0000 000000
2018-01-31 01:16:23,0.16,8.33,0.00,17.70,20.82,24.23,14.42,50.66,1028.34,2047.01,1364.70,1649.41,1885.61,599.91,613.80,50.64,0000 0000 0000 0000 000000
2018-01-31 01:21:24,0.15,8.34,0.00,17.71,20.83,24.23,14.51,50.75,1028.35,2047.01,1363.73,1648.66,1884.68,600.08,614.04,50.69,0000 0000 0000 0000 000000
2018-01-31 01:26:26,0.14,8.34,0.00,17.71,20.84,24.24,14.30,50.58,1028.35,2047.00,1362.73,1647.86,1883.70,599.81,613.77,50.74,0000 0000 0000 0000 000000
2018-01-31 01:31:27,0.16,8.35,0.00,17.69,20.84,24.26,14.51,50.67,1028.42,2047.00,1361.77,1647.01,1882.72,600.34,614.24,50.79,0000 0000 0000 0000 000000
2018-01-31 01:36:28,0.16,8.36,0.00,17.70,20.86,24.26,14.43,50.69,1028.37,2047.00,1360.78,1646.12,1881.78,600.27,614.01,50.85,0000 0000 0000 0000 000000
2018-01-31 01:41:30,0.18,8.37,0.00,17.72,20.87,24.27,14.40,50.70,1028.35,2047.00,1359.73,1645.24,1880.81,600.12,613.97,50.90,0000 0000 0000 0000 000000
2018-01-31 01:46:31,0.16,8.38,0.00,17.75,20.87,24.28,14.37,50.63,1028.38,2047.00,1358.76,1644.47,1879.82,599.92,613.80,50.95,0000 0000 0000 0000 000000
2018-01-31 01:51:32,0.19,8.39,0.00,17.75,20.88,24.30,14.43,50.67,1028.46,2047.00,1357.73,1643.58,1878.68,599.97,613.70,51.00,0000 0000 0000 0000 000000
2018-01-31 01:56:33,0.19,8.39,0.00,17.75,20.89,24.30,14.29,50.67,1028.70,2047.00,1356.53,1642.61,1877.59,599.59,613.44,51.05,0000 0000 0000 0000 000000
2018-01-31 02:01:35,0.18,8.41,0.00,17.77,20.89,24.32,14.39,50.71,1028.80,2047.00,1355.34,1641.62,1876.47,600.03,614.08,51.10,0000 0000 0000 0000 000000
2018-01-31 02:06:36,0.19,8.42,0.00,17.77,20.89,24.31,14.38,50.74,1028.80,2047.00,1354.00,1640.58,1875.30,599.82,614.10,51.15,0000 0000 0000 0000 000000
2018-01-31 02:11:37,0.19,8.43,0.00,17.79,20.89,24.33,14.39,50.73,1028.78,2047.00,1352.83,1639.64,1874.19,600.14,613.89,51.20,0000 0000 0000 0000 000000
2018-01-31 02:16:39,0.16,8.44,0.00,17.82,20.90,24.34,14.42,50.75,1028.77,2047.00,1351.75,1638.78,1873.13,599.85,613.84,51.25,0000 0000 0000 0000 000000
2018-01-31 02:21:40,0.20,8.44,0.00,17.84,20.91,24.35,14.46,50.74,1028.82,2047.00,1350.56,1637.79,1872.15,600.03,613.94,51.30,0000 0000 0000 0000 000000
2018-01-31 02:26:42,0.18,8.45,0.00,17.84,20.92,24.35,14.46,50.73,1028.82,2047.00,1349.39,1636.82,1871.00,600.07,614.16,51.35,0000 0000 0000 0000 000000
2018-01-31 02:31:43,0.19,8.47,0.00,17.84,20.92,24.37,14.35,50.67,1028.83,2047.00,1348.12,1635.84,1869.80,599.91,613.80,51.40,0000 0000 0000 0000 000000
2018-01-31 02:36:44,0.16,8.47,0.00,17.84,20.92,24.36,14.43,50.67,1028.83,2047.00,1346.98,1634.93,1868.79,600.08,614.05,51.45,0000 0000 0000 0000 000000
2018-01-31 02:41:45,0.18,8.48,0.00,17.85,20.94,24.38,14.40,50.74,1028.83,2047.00,1345.98,1634.02,1867.67,600.25,614.20,51.50,0000 0000 0000 0000 000000
2018-01-31 02:46:47,0.16,8.49,0.00,17.87,20.94,24.39,14.38,50.79,1028.81,2047.00,1345.02,1633.12,1866.71,599.74,613.50,51.55,0000 0000 0000 0000 000000
2018-01-31 02:51:48,0.16,8.50,0.00,17.89,20.94,24.40,14.36,50.62,1028.82,2046.98,1344.05,1632.37,1865.81,599.68,613.33,51.60,0000 0000 0000 0000 000000
2018-01-31 02:56:50,0.15,8.51,0.00,17.90,20.95,24.39,14.46,50.65,1028.83,2046.99,1343.08,1631.63,1864.90,600.02,613.78,51.65,0000 0000 0000 0000 000000
2018-01-31 03:01:51,0.14,8.52,0.00,17.92,20.95,24.39,14.47,50.80,1028.83,2046.99,1342.26,1630.81,1864.02,599.90,613.57,51.70,0000 0000 0000 0000 000000
2018-01-31 03:06:53,0.15,8.52,0.00,17.91,20.97,24.40,14.45,50.77,1028.83,2046.99,1341.39,1630.02,1863.10,600.05,613.76,51.75,0000 0000 0000 0000 000000
2018-01-31 03:11:54,0.17,8.53,0.00,17.92,20.97,24.40,14.31,50.72,1028.83,2046.98,1340.47,1629.25,1862.19,599.82,613.65,51.81,0000 0000 0000 0000 000000
2018-01-31 03:16:56,0.15,8.54,0.00,17.92,20.97,24.41,14.35,50.65,1028.86,2046.98,1339.60,1628.52,1861.29,600.29,614.07,51.86,0000 0000 0000 0000 000000
2018-01-31 03:21:57,0.14,8.55,0.00,17.94,20.97,24.43,14.33,50.71,1029.08,2046.99,1338.59,1627.79,1860.46,599.65,613.57,51.91,0000 0000 0000 0000 000000
2018-01-31 03:26:59,0.14,8.55,0.00,17.95,20.99,24.44,14.39,50.75,1028.84,2046.93,1337.61,1626.97,1859.53,599.89,613.55,51.96,0000 0000 0000 0000 000000
2018-01-31 03:32:00,0.12,8.56,0.00,17.98,20.99,24.44,14.39,50.77,1028.85,2046.94,1336.93,1626.12,1858.66,600.07,613.66,52.01,0000 0000 0000 0000 000000
2018-01-31 03:37:01,0.14,8.57,0.00,17.98,21.00,24.45,14.33,50.64,1028.83,2046.93,1336.02,1625.49,1857.86,599.59,613.33,52.06,0000 0000 0000 0000 000000
2018-01-31 03:42:03,0.13,8.58,0.00,17.98,21.02,24.45,14.47,50.60,1028.88,2046.95,1335.10,1624.84,1856.98,600.17,613.89,52.11,0000 0000 0000 0000 000000
2018-01-31 03:47:04,0.13,8.59,0.00,17.99,21.02,24.47,14.44,50.64,1029.15,2046.83,1334.30,1624.03,1856.07,599.95,613.71,52.16,0000 0000 0000 0000 000000
2018-01-31 03:52:05,0.09,8.59,0.00,17.99,21.04,24.47,14.40,50.65,1028.91,2046.28,1333.34,1623.17,1855.17,600.34,613.90,52.21,0000 0000 0000 0000 000000
2018-01-31 03:57:07,0.16,8.59,0.00,18.00,21.04,24.47,14.42,50.74,1028.83,2046.12,1332.45,1622.42,1854.46,600.37,613.96,52.26,0000 0000 0000 0000 000000
2018-01-31 04:02:08,0.12,8.60,0.00,18.00,21.06,24.48,14.36,50.65,1028.84,2046.13,1331.63,1621.77,1853.64,599.96,613.62,52.31,0000 0000 0000 0000 000000
2018-01-31 04:07:09,0.12,8.61,0.00,18.04,21.07,24.51,14.41,50.70,1029.14,2046.07,1330.71,1621.01,1852.84,599.93,613.58,52.36,0000 0000 0000 0000 000000
2018-01-31 04:12:11,0.15,8.62,0.00,18.10,21.08,24.50,14.35,50.76,1029.31,2046.08,1329.87,1620.19,1852.01,599.78,613.42,52.41,0000 0000 0000 0000 000000
2018-01-31 04:17:12,0.14,8.62,0.00,18.15,21.09,24.52,14.43,50.86,1029.30,2046.03,1329.03,1619.53,1851.11,599.86,613.44,52.46,0000 0000 0000 0000 000000
2018-01-31 04:22:14,0.13,8.63,0.00,18.18,21.11,24.52,14.38,50.79,1029.26,2046.03,1328.15,1618.88,1850.20,600.17,613.64,52.51,0000 0000 0000 0000 000000
2018-01-31 04:27:15,0.16,8.64,0.00,18.16,21.12,24.53,14.34,50.71,1029.31,2046.01,1327.35,1618.07,1849.39,599.80,613.32,52.56,0000 0000 0000 0000 000000
2018-01-31 04:32:16,0.16,8.64,0.00,18.12,21.14,24.56,14.37,50.72,1029.31,2046.01,1326.57,1617.29,1848.55,600.06,613.69,52.61,0000 0000 0000 0000 000000
2018-01-31 04:37:17,0.14,8.65,0.00,18.12,21.16,24.57,14.40,50.60,1029.37,2046.00,1325.68,1616.66,1847.72,600.02,613.73,52.67,0000 0000 0000 0000 000000
2018-01-31 04:42:18,0.08,8.66,0.00,18.14,21.17,24.58,14.40,50.53,1029.52,2045.99,1324.92,1615.96,1846.89,600.10,613.62,52.72,0000 0000 0000 0000 000000
2018-01-31 04:47:20,0.16,8.67,0.00,18.14,21.19,24.60,14.35,50.51,1029.65,2045.99,1324.06,1615.15,1846.05,599.93,613.71,52.77,0000 0000 0000 0000 000000
2018-01-31 04:52:21,0.15,8.67,0.00,18.13,21.20,24.61,14.47,50.51,1029.79,2045.99,1323.33,1614.62,1845.20,599.86,613.71,52.82,0000 0000 0000 0000 000000
2018-01-31 04:57:23,0.13,8.68,0.00,18.16,21.22,24.63,14.35,50.50,1029.80,2045.99,1322.40,1613.93,1844.45,599.89,613.66,52.87,0000 0000 0000 0000 000000
2018-01-31 05:02:24,0.15,8.69,0.00,18.18,21.22,24.64,14.37,50.45,1029.80,2045.99,1321.46,1613.11,1843.70,599.73,613.51,52.92,0000 0000 0000 0000 000000
2018-01-31 05:07:25,0.14,8.69,0.00,18.17,21.24,24.65,14.43,50.58,1029.80,2045.98,1320.60,1612.41,1842.95,600.03,613.55,52.97,0000 0000 0000 0000 000000
2018-01-31 05:12:27,0.09,8.70,0.00,18.19,21.24,24.66,14.41,50.67,1029.80,2045.99,1319.84,1611.82,1842.07,599.77,613.36,53.02,0000 0000 0000 0000 000000
2018-01-31 05:17:29,0.15,8.71,0.00,18.17,21.25,24.69,14.44,50.61,1029.80,2045.97,1319.01,1611.05,1841.23,600.30,614.14,53.07,0000 0000 0000 0000 000000
2018-01-31 05:22:30,0.17,8.72,0.00,18.17,21.27,24.70,14.48,50.65,1029.80,2045.98,1318.13,1610.31,1840.45,600.24,613.96,53.12,0000 0000 0000 0000 000000
2018-01-31 05:27:31,0.13,8.72,0.00,18.17,21.27,24.69,14.30,50.58,1029.80,2045.97,1317.35,1609.70,1839.66,599.94,613.56,53.17,0000 0000 0000 0000 000000
2018-01-31 05:32:32,0.15,8.73,0.00,18.18,21.29,24.69,14.43,50.61,1029.80,2045.94,1316.35,1608.94,1838.71,600.11,613.81,53.22,0000 0000 0000 0000 000000
2018-01-31 05:37:34,0.16,8.74,0.00,18.19,21.29,24.71,14.43,50.55,1029.80,2045.92,1315.49,1608.05,1837.72,600.14,613.78,53.27,0000 0000 0000 0000 000000
2018-01-31 05:42:35,0.15,8.75,0.00,18.19,21.31,24.72,14.34,50.53,1029.80,2045.68,1314.39,1607.11,1836.64,599.83,613.66,53.32,0000 0000 0000 0000 000000
2018-01-31 05:47:36,0.06,8.75,0.00,18.19,21.32,24.73,14.39,50.55,1029.78,2045.35,1313.73,1606.45,1835.91,599.94,613.55,53.37,0000 0000 0000 0000 000000
2018-01-31 05:52:37,0.06,8.76,0.00,18.20,21.32,24.72,14.38,50.52,1029.80,2045.17,1312.92,1605.92,1835.09,599.99,613.82,53.42,0000 0000 0000 0000 000000
2018-01-31 05:57:39,0.18,8.77,0.00,18.21,21.34,24.75,14.43,50.57,1029.81,2045.08,1312.06,1605.10,1834.29,600.04,613.74,53.47,0000 0000 0000 0000 000000
2018-01-31 06:02:40,0.15,8.77,0.00,18.21,21.34,24.75,14.43,50.64,1029.85,2045.12,1311.23,1604.64,1833.67,599.89,613.61,53.52,0000 0000 0000 0000 000000
2018-01-31 06:07:41,0.15,8.78,0.00,18.23,21.34,24.77,14.32,50.54,1030.06,2045.09,1310.22,1603.78,1832.74,599.77,613.63,53.58,0000 0000 0000 0000 000000
2018-01-31 06:12:43,0.27,8.79,0.00,18.23,21.35,24.76,14.41,50.59,1030.14,2045.06,1308.70,1602.62,1831.47,600.25,613.94,53.63,0000 0000 0000 0000 000000
2018-01-31 06:17:44,0.19,8.80,0.00,18.24,21.37,24.78,14.27,50.48,1029.87,2045.05,1307.52,1601.63,1830.34,599.90,613.58,53.68,0000 0000 0000 0000 000000
2018-01-31 06:22:46,0.22,8.81,0.00,18.24,21.37,24.78,14.38,50.69,1029.82,2045.02,1305.98,1600.52,1829.05,599.94,613.59,53.73,0000 0000 0000 0000 000000
2018-01-31 06:27:47,0.23,8.82,0.00,18.25,21.37,24.80,14.40,50.65,1030.06,2045.02,1304.66,1599.46,1827.84,599.92,613.73,53.78,0000 0000 0000 0000 000000
2018-01-31 06:32:48,0.12,8.83,0.00,18.25,21.39,24.80,14.40,50.63,1030.24,2045.02,1303.71,1598.83,1826.83,600.04,613.89,53.83,0000 0000 0000 0000 000000
2018-01-31 06:37:49,0.18,8.84,0.00,18.24,21.39,24.81,14.49,50.72,1030.29,2045.00,1302.63,1597.98,1825.86,600.39,614.41,53.88,0000 0000 0000 0000 000000
2018-01-31 06:42:50,0.16,8.85,0.00,18.23,21.40,24.82,14.41,50.67,1030.29,2045.00,1301.71,1597.10,1824.84,600.15,614.11,53.93,0000 0000 0000 0000 000000
2018-01-31 06:47:51,0.20,8.86,0.00,18.24,21.42,24.82,14.43,50.55,1030.29,2045.00,1300.61,1596.27,1823.88,600.00,614.08,53.98,0000 0000 0000 0000 000000
2018-01-31 06:52:53,0.19,8.87,0.00,18.26,21.42,24.83,14.34,50.48,1030.37,2045.00,1299.59,1595.34,1822.75,600.07,613.93,54.03,0000 0000 0000 0000 000000
2018-01-31 06:57:54,0.18,8.88,0.00,18.28,21.43,24.85,14.46,50.52,1030.76,2045.00,1298.49,1594.50,1821.77,599.82,614.00,54.08,0000 0000 0000 0000 000000
2018-01-31 07:02:55,0.11,8.89,0.00,18.27,21.44,24.84,14.41,50.48,1030.78,2045.00,1297.70,1593.84,1820.94,599.89,613.98,54.13,0000 0000 0000 0000 000000
2018-01-31 07:07:57,0.15,8.89,0.00,18.28,21.44,24.85,14.40,50.52,1030.78,2044.99,1296.78,1593.04,1820.01,599.76,613.76,54.18,0000 0000 0000 0000 000000
2018-01-31 07:12:58,0.18,8.90,0.00,18.29,21.45,24.86,14.43,50.67,1030.78,2044.98,1295.81,1592.19,1819.04,599.72,613.97,54.23,0000 0000 0000 0000 000000
2018-01-31 07:17:59,0.19,8.91,0.00,18.27,21.47,24.88,14.43,50.69,1030.78,2044.97,1294.79,1591.36,1818.04,600.13,614.35,54.28,0000 0000 0000 0000 000000
2018-01-31 07:23:00,0.19,8.92,0.00,18.27,21.47,24.88,14.40,50.62,1030.78,2044.98,1293.72,1590.52,1817.04,599.78,613.85,54.33,0000 0000 0000 0000 000000
2018-01-31 07:28:01,0.18,8.93,0.00,18.29,21.47,24.87,14.39,50.57,1030.78,2044.96,1292.53,1589.67,1816.04,599.93,614.06,54.38,0000 0000 0000 0000 000000
2018-01-31 07:33:03,0.15,8.94,0.00,18.30,21.47,24.91,14.41,50.67,1030.78,2044.92,1291.66,1588.81,1815.00,599.98,614.01,54.43,0000 0000 0000 0000 000000
2018-01-31 07:38:04,0.17,8.95,0.00,18.30,21.49,24.90,14.36,50.59,1030.78,2044.84,1290.45,1587.98,1814.05,599.65,613.65,54.49,0000 0000 0000 0000 000000
2018-01-31 07:43:05,0.16,8.96,0.00,18.29,21.49,24.91,14.34,50.59,1030.78,2044.71,1289.43,1587.10,1813.13,599.82,614.00,54.54,0000 0000 0000 0000 000000
2018-01-31 07:48:06,0.17,8.97,0.00,18.30,21.49,24.90,14.42,50.53,1030.79,2044.70,1288.52,1586.36,1812.27,599.94,614.00,54.59,0000 0000 0000 0000 000000
2018-01-31 07:53:07,0.10,8.97,0.00,18.30,21.49,24.92,14.43,50.39,1030.95,2044.30,1287.62,1585.63,1811.35,600.19,614.51,54.64,0000 0000 0000 0000 000000
2018-01-31 07:58:09,0.12,8.98,0.00,18.32,21.49,24.90,14.47,50.48,1031.04,2044.17,1286.71,1584.90,1810.42,600.10,614.18,54.69,0000 0000 0000 0000 000000
2018-01-31 08:03:10,0.17,8.99,0.00,18.32,21.49,24.91,14.48,50.47,1031.08,2044.13,1285.75,1584.06,1809.59,600.00,614.14,54.74,0000 0000 0000 0000 000000
2018-01-31 08:08:11,0.13,8.99,0.00,18.32,21.49,24.92,14.35,50.38,1031.26,2044.17,1284.97,1583.45,1808.80,599.82,614.15,54.79,0000 0000 0000 0000 000000
2018-01-31 08:13:13,0.12,9.00,0.00,18.31,21.49,24.92,14.35,50.51,1031.26,2044.16,1284.07,1582.83,1808.00,599.89,614.29,54.84,0000 0000 0000 0000 000000
2018-01-31 08:18:14,0.14,9.01,0.00,18.32,21.49,24.93,14.48,50.51,1031.26,2044.14,1283.31,1582.05,1807.11,600.16,614.44,54.89,0000 0000 0000 0000 000000
2018-01-31 08:23:15,0.19,9.02,0.00,18.32,21.49,24.93,14.41,50.53,1031.15,2044.18,1282.40,1581.30,1806.34,599.69,613.93,54.94,0000 0000 0000 0000 000000
2018-01-31 08:28:16,0.12,9.02,0.00,18.32,21.49,24.95,14.45,50.44,1030.90,2044.08,1281.57,1580.76,1805.54,600.24,614.24,54.99,0000 0000 0000 0000 000000
2018-01-31 08:33:18,0.10,9.03,0.00,18.31,21.49,24.95,14.36,50.38,1030.79,2044.07,1280.78,1580.02,1804.83,599.87,613.86,55.04,0000 0000 0000 0000 000000
2018-01-31 08:38:19,0.17,9.04,0.00,18.33,21.49,24.95,14.42,50.43,1030.78,2044.02,1279.81,1579.20,1804.00,600.10,614.19,55.09,0000 0000 0000 0000 000000
2018-01-31 08:43:20,0.14,9.05,0.00,18.34,21.49,24.97,14.38,50.39,1030.78,2044.06,1279.01,1578.63,1803.11,600.09,614.08,55.14,0000 0000 0000 0000 000000
2018-01-31 08:48:21,0.14,9.05,0.00,18.34,21.49,24.95,14.47,50.43,1030.79,2044.05,1278.20,1577.96,1802.29,599.99,613.99,55.19,0000 0000 0000 0000 000000
2018-01-31 08:53:23,0.17,9.06,0.00,18.36,21.49,24.95,14.40,50.42,1030.87,2044.06,1277.33,1577.14,1801.54,599.51,613.56,55.24,0000 0000 0000 0000 000000
2018-01-31 08:58:24,0.16,9.07,0.00,18.35,21.49,24.96,14.40,50.47,1031.11,2044.08,1276.33,1576.50,1800.84,600.01,614.00,55.29,0000 0000 0000 0000 000000
2018-01-31 09:03:25,0.10,9.08,0.00,18.35,21.49,24.96,14.38,50.43,1031.22,2044.13,1275.66,1575.87,1800.00,599.77,614.01,55.35,0000 0000 0000 0000 000000
2018-01-31 09:08:27,0.18,9.08,0.00,18.33,21.49,24.97,14.47,50.46,1031.26,2044.08,1274.65,1575.05,1799.12,600.04,614.19,55.40,0000 0000 0000 0000 000000
2018-01-31 09:13:28,0.15,9.09,0.00,18.34,21.49,24.97,14.41,50.44,1031.27,2044.08,1273.83,1574.31,1798.28,599.79,614.12,55.45,0000 0000 0000 0000 000000
2018-01-31 09:18:30,0.14,9.10,0.00,18.32,21.49,24.97,14.41,50.46,1031.31,2044.20,1273.04,1573.82,1797.50,599.94,614.34,55.50,0000 0000 0000 0000 000000
2018-01-31 09:23:31,0.14,9.11,0.00,18.32,21.49,24.96,14.50,50.48,1031.31,2044.14,1272.29,1573.03,1796.73,600.22,614.59,55.55,0000 0000 0000 0000 000000
2018-01-31 09:28:32,0.14,9.11,0.00,18.31,21.49,24.98,14.47,50.73,1031.36,2044.07,1271.36,1572.27,1795.95,600.02,614.55,55.60,0000 0000 0000 0000 000000
2018-01-31 09:33:34,0.15,9.12,0.00,18.29,21.49,24.97,14.36,50.58,1031.72,2044.06,1270.55,1571.69,1795.11,600.12,614.71,55.65,0000 0000 0000 0000 000000
2018-01-31 09:38:35,0.10,9.13,0.00,18.28,21.50,24.96,14.49,50.59,1031.75,2044.05,1269.86,1571.01,1794.45,600.06,614.79,55.70,0000 0000 0000 0000 000000
2018-01-31 09:43:37,0.14,9.13,0.00,18.27,21.51,24.97,14.50,50.64,1031.75,2044.04,1269.05,1570.43,1793.78,599.71,614.37,55.75,0000 0000 0000 0000 000000
2018-01-31 09:48:38,0.10,9.14,0.00,18.27,21.52,24.97,14.46,50.58,1031.74,2044.04,1268.35,1569.93,1792.98,600.15,614.94,55.80,0000 0000 0000 0000 000000
2018-01-31 09:53:40,0.16,9.15,0.00,18.25,21.52,24.97,14.39,50.64,1031.71,2044.03,1267.66,1569.10,1792.13,599.79,614.60,55.85,0000 0000 0000 0000 000000
2018-01-31 09:58:41,0.12,9.15,0.00,18.25,21.52,24.97,14.57,50.69,1031.67,2044.04,1266.88,1568.56,1791.57,600.22,614.93,55.90,0000 0000 0000 0000 000000
2018-01-31 10:03:43,0.10,9.16,0.00,18.25,21.52,24.97,14.48,50.58,1031.58,2044.03,1266.07,1567.98,1790.88,599.83,614.46,55.95,0000 0000 0000 0000 000000
2018-01-31 10:08:44,0.17,9.17,0.00,18.25,21.52,24.96,14.39,50.55,1031.44,2044.02,1265.36,1567.16,1790.05,599.85,614.45,56.00,0000 0000 0000 0000 000000
2018-01-31 10:13:45,0.14,9.17,0.00,18.26,21.52,24.97,14.38,50.50,1031.37,2044.03,1264.64,1566.65,1789.27,599.68,614.19,56.05,0000 0000 0000 0000 000000
2018-01-31 10:18:46,0.08,9.18,0.00,18.25,21.52,24.98,14.42,50.51,1031.28,2044.02,1263.96,1566.01,1788.65,599.93,614.39,56.10,0000 0000 0000 0000 000000
2018-01-31 10:23:48,0.15,9.19,0.00,18.26,21.52,24.97,14.35,50.30,1031.27,2044.02,1263.11,1565.40,1788.01,599.86,614.19,56.15,0000 0000 0000 0000 000000
2018-01-31 10:28:50,0.12,9.19,0.00,18.25,21.52,24.96,14.43,50.49,1031.27,2044.02,1262.42,1564.95,1787.25,600.03,614.51,56.20,0000 0000 0000 0000 000000
2018-01-31 10:33:51,0.16,9.20,0.00,18.24,21.50,24.96,14.41,50.61,1031.25,2044.03,1261.61,1564.14,1786.59,600.11,614.61,56.26,0000 0000 0000 0000 000000
2018-01-31 10:38:52,0.09,9.21,0.00,18.23,21.50,24.96,14.38,50.67,1031.27,2044.02,1260.85,1563.68,1785.98,600.11,614.77,56.31,0000 0000 0000 0000 000000
2018-01-31 10:43:54,0.13,9.22,0.00,18.20,21.49,24.96,14.47,50.79,1031.28,2044.05,1260.03,1563.01,1785.22,600.01,614.63,56.36,0000 0000 0000 0000 000000
2018-01-31 10:48:55,0.18,9.22,0.00,18.20,21.49,24.95,14.50,50.65,1031.29,2044.11,1259.14,1562.32,1784.65,600.31,614.88,56.41,0000 0000 0000 0000 000000
2018-01-31 10:53:56,0.03,9.23,0.00,18.20,21.49,24.94,14.50,50.58,1031.31,2044.16,1258.94,1561.97,1783.93,600.17,614.73,56.46,0000 0000 0000 0000 000000
2018-01-31 10:58:57,0.16,9.24,0.00,18.22,21.49,24.94,14.38,50.47,1031.54,2044.10,1258.13,1561.20,1783.10,599.64,614.35,56.51,0000 0000 0000 0000 000000
2018-01-31 11:03:58,0.11,9.24,0.00,18.23,21.49,24.93,14.35,50.50,1031.75,2044.06,1257.52,1560.86,1782.49,599.91,614.63,56.56,0000 0000 0000 0000 000000
2018-01-31 11:09:00,0.09,9.25,0.00,18.21,21.49,24.92,14.50,50.55,1031.76,2044.05,1256.86,1560.08,1781.90,600.14,614.86,56.61,0000 0000 0000 0000 000000
2018-01-31 11:14:01,0.14,9.25,0.00,18.20,21.49,24.93,14.47,50.53,1031.76,2044.05,1256.06,1559.69,1781.08,600.39,615.28,56.66,0000 0000 0000 0000 000000
2018-01-31 11:19:02,0.14,9.26,0.00,18.20,21.49,24.91,14.42,50.59,1031.78,2044.05,1255.29,1559.01,1780.47,599.63,614.55,56.71,0000 0000 0000 0000 000000
2018-01-31 11:24:03,0.15,9.27,0.00,18.20,21.49,24.93,14.43,50.68,1031.83,2044.04,1254.39,1558.26,1779.90,599.87,614.72,56.76,0000 0000 0000 0000 000000
2018-01-31 11:29:05,0.13,9.27,0.00,18.18,21.49,24.92,14.42,50.63,1032.02,2044.20,1253.75,1557.85,1779.10,600.14,615.10,56.81,0000 0000 0000 0000 000000
2018-01-31 11:34:06,0.16,9.28,0.00,18.18,21.49,24.90,14.35,50.81,1032.23,2044.30,1252.97,1557.07,1778.46,599.80,614.97,56.86,0000 0000 0000 0000 000000
2018-01-31 11:39:08,0.15,9.29,0.00,18.17,21.49,24.90,14.48,50.88,1032.24,2044.19,1251.98,1556.52,1777.69,600.18,615.50,56.91,0000 0000 0000 0000 000000
2018-01-31 11:44:09,0.32,9.30,0.00,18.17,21.50,24.91,14.46,50.98,1032.24,2044.14,1250.37,1555.03,1776.05,599.93,615.22,56.96,0000 0000 0000 0000 000000
2018-01-31 11:49:10,0.22,9.32,0.00,18.17,21.50,24.90,14.48,51.05,1032.24,2044.22,1248.96,1553.97,1774.80,600.23,615.52,57.01,0000 0000 0000 0000 000000
2018-01-31 11:54:12,0.18,9.33,0.00,18.17,21.49,24.90,14.45,51.12,1032.22,2044.28,1248.03,1553.10,1773.88,599.90,615.15,57.06,0000 0000 0000 0000 000000
2018-01-31 11:59:13,0.22,9.34,0.00,18.15,21.49,24.91,14.45,50.96,1032.19,2044.40,1247.18,1552.32,1772.82,599.89,615.30,57.11,0000 0000 0000 0000 000000
2018-01-31 12:04:15,0.41,9.35,0.00,18.14,21.49,24.92,14.44,50.98,1032.07,2044.33,1245.13,1550.72,1770.84,599.93,615.21,57.17,0000 0000 0000 0000 000000
2018-01-31 12:09:16,0.47,9.38,0.00,18.13,21.49,24.90,14.40,51.01,1031.89,2044.18,1242.34,1548.45,1768.22,599.83,614.82,57.22,0000 0000 0000 0000 000000
2018-01-31 12:14:17,0.39,9.40,0.00,18.13,21.49,24.90,14.47,50.99,1031.82,2044.11,1240.05,1546.56,1765.95,600.20,615.19,57.27,0000 0000 0000 0000 000000
2018-01-31 12:19:18,0.45,9.42,0.00,18.14,21.49,24.89,14.43,50.99,1032.00,2044.10,1237.56,1544.67,1763.76,599.66,614.83,57.32,0000 0000 0000 0000 000000
2018-01-31 12:24:20,0.32,9.44,0.00,18.13,21.48,24.88,14.54,51.04,1032.05,2044.08,1235.47,1543.11,1761.95,600.15,615.35,57.37,0000 0000 0000 0000 000000
2018-01-31 12:29:21,0.31,9.45,0.00,18.12,21.47,24.88,14.43,50.88,1032.08,2044.09,1233.83,1541.77,1760.47,599.93,615.30,57.42,0000 0000 0000 0000 000000
2018-01-31 12:34:22,0.40,9.47,0.00,18.11,21.47,24.91,14.54,50.91,1032.20,2044.19,1231.69,1540.22,1758.61,600.03,615.42,57.47,0000 0000 0000 0000 000000
2018-01-31 12:39:24,0.38,9.50,0.00,18.11,21.47,24.90,14.41,50.80,1032.24,2044.23,1229.45,1538.47,1756.58,599.88,615.17,57.52,0000 0000 0000 0000 000000
2018-01-31 12:44:25,0.21,9.51,0.00,18.12,21.47,24.87,14.43,50.83,1032.24,2044.15,1228.08,1537.33,1755.25,600.23,615.61,57.57,0000 0000 0000 0000 000000
2018-01-31 12:49:27,0.27,9.52,0.00,18.13,21.46,24.87,14.39,50.87,1032.24,2044.24,1226.69,1536.35,1754.05,599.81,615.23,57.62,0000 0000 0000 0000 000000
2018-01-31 12:54:28,0.39,9.54,0.00,18.11,21.45,24.88,14.33,50.83,1032.24,2044.53,1224.61,1534.93,1752.39,599.55,614.96,57.67,0000 0000 0000 0000 000000